Regional Weather Roundup
Issued by NWS Midland/Odessa, TX

Home | Current Version | Previous Version | Text Only | Print | Product List | Glossary On
Versions: 1 2 3 4 5 6 7 8 9 10 11 12 13 14 15 16 17 18 19 20 21 22 23 24 25 26 27 28 29 30 31 32 33 34 35 36 37 38 39 40 41 42 43 44 45 46 47 48 49 50
000
ASUS44 KMAF 231810
RWRMAF
MIDLAND AREA WEATHER ROUNDUP
NATIONAL WEATHER SERVICE MIDLAND TX
100 PM CDT WED AUG 23 2017

...IN SOUTHWEST TEXAS AND SOUTHEAST NEW MEXICO...

CITY           SKY/WX    TMP DP  RH WIND       PRES   REMARKS
ALPINE         PTSUNNY   77  64  62 E13G18    30.28S
ANDREWS          N/A     81  63  54 SE5       30.17F
ARTESIA          N/A     81  64  57 VRB6G13   30.18F
BIG SPRING     MOSUNNY   76  68  76 CALM      30.16F
CARLSBAD       SUNNY     81  68  64 N5        30.15F
DRYDEN           N/A     83  70  64 NE12      30.07F
FORT STOCKTON  MOSUNNY   81  66  60 VRB3      30.14F
GUAD PASS      PTSUNNY   77  62  59 E12       30.29F
HOBBS          MOSUNNY   81  63  54 NE8       30.18F
MARFA          SUNNY     82  62  50 NE13      30.23F
MIDLAND AIRPK  MOSUNNY   80  67  66 E7        30.15F
MIDLAND INTL   MOSUNNY   79  67  66 NE8       30.15F
ODESSA         SUNNY     80  67  64 VRB5      30.16F
PECOS          PTSUNNY   82  64  54 CALM      30.13F
PRESIDIO       FAIR      92  61  35 S5        30.08F
SEMINOLE       MOSUNNY   82  63  52 E8        30.18F
SNYDER         CLOUDY    78  68  70 NE8       30.14F
WINK           CLOUDY    82  65  56 VRB5      30.12F
$$
...OTHER STATIONS IN TEXAS...

CITY           SKY/WX    TMP DP  RH WIND       PRES   REMARKS
ABILENE        MOSUNNY   84  69  60 VRB3      30.08F
AMARILLO       CLOUDY    72  66  81 E7        30.21F
AUSTIN         PTSUNNY   95  67  39 VRB3      29.97F
BROWNSVILLE    PTSUNNY   90  73  57 NE12G18   29.93F
CORPUS CHRISTI MOSUNNY   92  70  48 NE8       29.94F
DALLAS FTW     CLOUDY    86  68  54 CALM      30.01F
DEL RIO        PTSUNNY   93  63  36 S5G16     29.98F
EL PASO        PTSUNNY   86  64  47 VRB3      30.15F
HOUSTON INT    PTSUNNY   90  71  53 NE9       29.95F
LUBBOCK        MOSUNNY   79  67  66 VRB5      30.18F
SAN ANGELO     CLOUDY    83  67  58 N5        30.09F
SAN ANTONIO    MOSUNNY   92  65  40 VRB3      29.99F
WACO           SUNNY     91  72  53 NE8       29.99F
WICHITA FALLS  NOT AVBL
$$
...OTHER LOCATIONS IN NEW MEXICO...

CITY           SKY/WX    TMP DP  RH WIND       PRES   REMARKS
ALAMOGORDO     SUNNY     82  63  51 S8        30.19F
ALBUQUERQUE    PTSUNNY   78  57  48 VRB6      30.27F
CANNON AFB     MOSUNNY   77  70  78 E7        30.23F
CLOVIS         PTSUNNY   76  65  68 VRB7      30.23F
HOLLOMAN AFB   SUNNY     89  63  42 SE5       30.18F
ROSWELL        MOSUNNY   82  64  54 N10       30.18F
RUIDOSO        CLOUDY    73  59  60 SE9G17    30.38F
SANTA FE       SUNNY     79  54  41 VRB6      30.32F
TRUTH OR CONSE PTSUNNY   83  58  42 W3        30.21F
TUCUMCARI      CLOUDY    79  65  62 VRB6      30.19F
$$



USA.gov is the U.S. government's official web portal to all federal, state and local government web resources and services.